sat.trackr.live / text

‹ back to catalog

STARLINK-31421

NORAD 59218 · 2024-046T

PAYLOAD ACTIVE UNKNOWN

§ Identity

Operator
Country
US
Launch date
2024-03-11
Launch site
AFWTR
Launch vehicle
Mass (kg)
RCS (m²)

Purposes: comms

External: N2YO · Heavens-Above · Gunter

§ Orbital elements

Epoch: 2026-05-24T18:23:56.506272Z

Period
93.85 min
Inclination
53.1607°
Eccentricity
0.0001212
Mean motion
15.34387533 rev/d
Perigee alt
461.9 km
Apogee alt
463.6 km
Semi-major
6,840.9 km
B*
-6.8086e-6
RAAN
160.8344°
Arg perigee
94.3975°
Mean anomaly
265.7166°
Rev number
12,470

§ Raw data

STARLINK-314211 59218U 24046T   26144.76662623 -.00000606  00000+0 -68086-5 0  99922 59218  53.1607 160.8344 0001212  94.3975 265.7166 15.34387533124707

JSON: /api/v1/satellites/59218 · /tle

For live sub-satellite position, see the globe view (requires WebGL).

§ Visibility from observer

Set your observer location to see the next 7 days of passes ≥ 10°. The values pass through the URL so the page stays shareable.

No JS? Fill the form by hand. The geolocation button needs JavaScript.